Theta_e
338 344 347 349 347 348 346 350 358 359 362 351 352 355 355 364 362 364 364 360 361 359 355 352 351 352 354 354 352 352 350 352 353 345 345 353 353 351 355 353 354 352 352 353 352 351 350 351 352 353 354 353 351 351 350 345 339 339 342 345 347 348 349 350 352 350 350 350 350 351 350 349 347 348 349 348 349 349 351 351 351 349 349 350 349 349 349 351 351 351 350 350 350 350 350 350 350
344 347 345 347 346 350 352 357 360 359 357 345 348 356 357 365 364 364 365 362 361 355 351 350 350 352 350 348 346 349 351 350 352 352 351 353 353 353 353 354 354 352 353 353 352 352 351 352 353 354 353 353 351 351 349 342 337 337 340 344 348 350 350 351 351 350 350 351 351 350 350 350 349 350 349 348 348 349 351 352 351 349 348 349 350 350 349 349 351 351 350 349 350 350 351 350 348
348 347 345 348 348 351 357 362 360 356 352 342 345 361 364 364 364 365 364 359 355 350 349 349 350 352 349 348 348 350 352 350 349 350 351 353 354 354 354 354 354 353 353 353 353 354 353 353 353 353 353 352 350 347 343 339 336 334 338 344 350 351 350 350 350 350 352 351 350 349 349 350 351 351 349 348 347 348 350 351 351 349 348 349 350 350 349 349 350 350 349 348 349 350 351 351 350
348 346 347 349 353 356 361 364 364 357 346 340 346 363 367 363 364 363 360 354 352 349 349 351 352 354 352 349 348 350 351 350 350 351 351 353 352 352 353 352 353 354 352 353 354 353 353 352 353 353 352 351 349 345 339 337 335 334 340 348 351 351 350 350 350 351 352 351 350 349 348 349 351 351 350 348 347 348 350 349 349 348 349 350 350 349 349 350 350 350 350 349 350 351 351 351 351
348 347 349 351 358 361 364 364 366 359 347 344 349 360 365 363 365 361 356 352 351 350 351 354 355 353 352 348 347 350 350 349 350 352 353 351 350 351 351 350 351 352 353 354 354 354 353 350 351 352 352 352 350 346 340 337 334 337 346 351 351 351 349 348 349 350 351 351 351 349 348 350 351 350 349 348 347 350 350 348 347 348 349 350 350 349 349 350 350 350 350 350 351 351 351 350 350
349 350 351 354 358 359 363 359 361 363 359 357 357 362 364 362 364 359 355 353 352 353 352 353 352 351 351 348 347 348 349 349 349 351 354 351 350 351 350 351 350 351 354 354 353 354 352 349 350 352 352 352 351 348 342 337 338 345 350 351 350 350 348 347 348 350 351 351 352 350 349 351 352 350 348 347 348 351 350 349 349 349 349 350 350 349 349 348 349 349 350 350 350 351 350 349 349
351 353 355 358 359 359 364 358 359 365 364 365 363 363 365 362 360 357 356 356 357 356 352 352 349 349 350 349 348 347 349 350 350 350 352 352 352 352 351 351 352 351 354 354 354 354 351 349 350 351 352 352 352 349 342 340 345 350 350 350 350 351 349 348 349 351 351 351 352 351 350 351 352 350 347 347 349 350 349 349 350 350 349 349 350 350 349 349 349 350 350 350 350 351 351 349 348
353 355 358 362 365 362 362 359 360 364 363 364 365 363 364 362 358 358 358 356 359 356 351 349 347 352 351 347 348 348 348 350 351 351 351 353 352 353 352 352 353 352 353 356 355 352 348 348 350 350 352 351 350 347 342 344 349 350 349 349 351 352 351 349 351 351 351 351 352 352 351 351 351 349 347 348 350 350 349 348 349 350 350 349 350 349 349 350 351 350 350 350 351 351 351 350 349
353 356 360 361 366 363 359 360 361 363 365 364 364 364 363 361 358 359 358 356 357 353 349 348 350 355 352 348 349 347 348 350 351 352 351 352 350 352 353 352 353 352 353 356 355 352 349 348 350 350 351 347 344 343 344 348 350 350 349 349 351 353 352 350 349 350 350 350 351 350 350 351 351 349 347 347 348 348 348 348 349 351 350 349 349 349 349 350 350 350 349 349 349 350 350 350 350
355 358 361 363 364 360 354 356 358 362 366 364 364 365 364 361 358 359 358 356 355 352 350 349 350 352 350 350 350 347 349 350 350 351 350 351 350 350 352 353 354 353 353 356 356 353 350 349 351 352 350 344 341 345 348 351 350 350 349 349 352 353 352 351 349 348 349 349 350 349 349 350 351 350 348 348 347 347 348 348 350 350 349 349 349 349 349 350 349 350 350 350 349 350 351 351 351
359 357 359 362 359 353 349 351 357 364 365 363 364 364 363 362 359 359 357 356 354 352 352 350 352 350 351 351 349 348 349 350 350 349 349 350 349 349 352 353 355 355 354 355 355 354 352 351 352 352 351 347 345 349 351 351 351 351 350 351 353 352 352 352 351 349 347 347 349 350 349 350 351 351 350 350 349 348 349 350 350 349 349 350 350 350 350 350 350 350 351 351 351 351 351 351 351
361 361 363 362 357 353 351 352 359 365 366 364 365 363 361 361 359 359 358 355 352 353 352 351 353 350 352 351 349 348 347 348 348 348 348 348 349 349 350 352 354 355 355 355 354 354 353 353 353 353 353 351 349 350 351 351 351 352 352 352 352 351 351 351 352 352 348 346 347 349 350 351 350 351 350 350 350 349 349 349 349 349 351 351 351 350 351 351 351 351 351 351 351 351 351 350 349
361 364 365 361 362 365 356 355 363 365 366 365 365 362 361 361 359 359 357 355 353 355 353 350 350 349 351 350 349 347 345 348 347 347 347 347 348 348 349 350 351 353 353 353 352 352 353 353 353 353 352 351 351 350 350 351 352 352 352 352 351 352 352 351 352 352 350 348 348 348 349 350 350 350 349 350 349 347 348 349 349 350 352 352 352 351 351 351 351 350 350 350 350 350 351 350 349
359 362 365 363 365 369 359 355 361 360 361 365 364 362 363 362 358 357 355 355 355 354 353 349 348 350 352 350 350 346 345 348 346 347 347 347 347 347 348 349 350 351 352 351 352 353 353 353 354 352 351 351 351 351 352 352 352 353 352 351 351 352 352 352 352 351 351 351 350 350 349 350 350 350 349 349 349 349 350 351 350 350 351 352 353 352 351 351 350 349 349 349 349 348 348 348 347
357 359 366 368 360 357 358 358 358 356 359 365 364 362 364 360 356 357 356 356 356 351 351 350 350 352 350 350 349 346 347 348 346 347 347 347 347 348 348 349 352 352 353 353 354 354 352 353 354 352 351 352 352 351 351 351 352 353 351 350 350 351 352 352 351 351 352 350 351 352 351 351 350 349 349 349 351 352 352 352 351 351 350 350 351 352 352 351 350 349 348 347 346 345 345 345 346
355 359 366 367 355 348 355 361 358 357 359 364 363 362 362 359 358 359 356 356 355 349 351 352 350 350 347 347 348 347 348 348 347 348 347 348 348 349 349 349 351 353 354 354 354 353 351 352 353 354 354 354 354 352 349 349 351 351 351 351 350 350 350 351 351 351 352 351 350 351 350 351 350 350 351 351 352 353 352 352 352 351 349 349 350 351 351 350 350 349 347 345 342 341 342 343 344
353 362 367 364 354 351 357 362 361 358 360 364 364 363 361 362 362 360 356 355 354 350 351 351 349 348 345 346 348 348 349 348 349 349 348 349 349 349 349 349 351 354 355 355 355 354 352 351 353 354 353 354 355 354 351 349 349 350 351 351 351 350 350 350 350 350 351 352 352 352 352 352 353 352 353 352 351 351 351 351 350 349 349 349 348 349 350 349 349 348 347 346 343 341 341 341 340
355 364 366 361 358 360 360 365 365 362 364 365 364 363 361 363 363 360 356 357 356 354 352 350 350 347 346 348 349 349 349 349 350 350 350 350 349 349 349 349 350 353 355 356 356 355 354 352 351 351 352 354 354 355 354 351 351 351 350 349 350 350 350 350 350 349 350 351 351 352 352 352 354 353 353 353 352 351 349 347 346 346 348 348 346 346 347 346 347 347 347 347 347 347 347 345 342
357 364 365 361 362 363 361 362 364 363 364 365 365 363 362 363 362 359 359 359 358 357 353 350 350 347 346 348 350 350 349 349 350 350 350 350 349 349 349 349 351 353 355 356 356 356 356 354 352 351 353 355 355 354 354 353 354 354 352 351 351 351 353 352 350 349 348 350 351 351 351 351 353 352 351 353 351 349 346 344 344 345 346 347 345 344 345 345 346 346 347 348 350 352 353 350 346
360 363 364 359 360 362 360 361 364 363 362 365 365 363 364 361 357 358 361 360 358 356 353 352 351 347 346 346 348 350 349 348 349 349 349 349 348 349 349 349 350 352 353 354 355 354 355 356 354 354 354 354 356 355 354 354 353 354 355 354 353 353 352 353 353 351 349 350 351 350 350 352 352 351 351 350 350 349 347 347 348 347 347 348 347 346 346 346 347 348 348 348 350 353 355 351 349
359 359 359 355 353 357 359 360 362 363 361 364 364 362 363 359 357 360 361 360 358 354 351 352 351 348 346 345 347 348 348 347 348 348 347 348 348 348 348 348 349 351 351 351 353 353 354 357 356 356 356 354 355 356 355 355 353 352 353 353 354 353 352 352 353 353 353 353 351 348 348 351 350 350 352 350 349 351 351 352 352 352 352 352 352 351 349 347 347 347 348 348 349 352 352 349 348
358 356 353 351 348 349 355 357 357 358 358 363 364 364 361 358 359 359 359 361 358 351 349 351 349 347 346 344 345 346 346 347 347 347 347 346 347 347 347 347 348 349 350 350 352 352 353 357 357 357 356 354 353 352 353 356 355 353 352 353 353 353 354 353 353 353 355 355 352 350 349 350 351 352 352 349 349 351 352 352 353 354 355 353 352 353 351 350 349 347 348 348 349 351 351 349 350
357 357 348 345 347 347 349 352 355 357 360 363 363 364 362 359 361 358 358 360 356 349 347 349 349 347 347 345 345 344 344 345 346 346 346 345 346 347 347 347 348 349 349 348 350 352 353 356 357 357 356 354 352 351 352 353 356 355 354 355 355 354 354 354 355 355 356 356 353 353 352 350 351 352 352 351 350 351 350 350 352 352 353 351 350 351 351 351 351 348 348 349 348 351 350 350 351
355 355 347 345 344 343 344 347 353 357 362 363 362 363 363 364 364 360 361 360 354 349 347 347 349 348 346 345 343 343 343 344 345 345 344 345 345 346 346 346 347 347 348 349 350 351 353 356 357 357 357 355 354 353 352 352 356 356 355 356 355 354 354 354 355 356 356 357 355 354 354 353 353 352 351 352 352 351 350 350 351 351 351 351 350 349 349 350 350 347 347 350 349 350 350 350 350
353 352 348 344 341 340 340 343 351 356 359 359 359 363 364 365 363 361 361 358 352 348 347 347 347 346 344 343 342 343 343 344 344 344 344 344 344 344 345 345 346 346 348 349 350 351 353 356 357 357 358 357 356 355 353 353 354 355 356 355 355 355 354 354 355 355 355 355 357 357 354 353 354 352 352 352 351 351 351 351 351 351 350 351 351 350 350 351 350 348 348 349 349 349 349 350 348
350 349 346 341 341 341 338 342 349 355 356 358 360 363 365 362 360 364 360 352 351 347 346 348 345 344 344 343 342 343 342 343 344 344 344 343 344 344 344 346 344 344 347 349 349 349 352 355 356 356 357 356 355 356 355 354 353 353 356 355 355 355 353 354 354 354 354 354 357 358 356 354 354 353 352 353 352 352 352 351 351 351 351 350 351 351 351 351 351 350 348 348 349 347 348 349 347
347 344 343 339 341 341 341 344 346 355 357 358 362 363 364 360 361 366 359 349 351 348 347 347 345 345 344 343 343 343 343 343 344 343 343 343 344 344 345 345 343 343 347 348 349 349 351 353 355 355 356 355 353 355 355 353 352 353 355 354 354 354 353 354 354 353 354 354 356 357 357 356 353 353 354 353 353 352 351 351 351 351 351 351 352 352 352 352 351 351 350 349 349 348 348 350 348
343 342 341 339 343 344 345 346 350 356 358 360 363 364 364 360 361 364 356 351 351 347 349 346 345 346 343 344 343 344 344 343 343 343 344 344 344 344 344 345 343 344 346 347 349 349 351 352 353 355 355 355 353 354 355 353 353 353 353 354 354 354 353 354 353 354 355 355 357 359 359 358 355 355 357 355 352 351 351 352 352 352 352 352 353 354 354 353 352 353 353 353 351 350 350 351 350
341 341 341 341 344 346 348 350 351 357 360 362 363 362 363 363 360 360 353 352 351 347 349 346 346 346 343 345 343 344 345 344 344 342 343 343 343 343 344 344 343 344 345 347 349 349 350 350 352 354 354 356 354 352 353 352 352 352 352 354 354 353 354 354 353 355 356 356 359 358 357 358 357 356 358 357 353 351 351 352 353 354 354 354 355 356 356 354 353 352 353 353 353 352 351 352 351
341 342 342 342 343 345 351 350 352 362 361 362 361 351 355 366 360 359 356 352 351 349 349 347 346 346 344 345 343 344 345 345 345 343 342 342 342 343 342 342 343 343 345 347 348 348 349 350 351 353 354 354 353 352 352 351 350 350 352 353 353 353 353 354 354 355 356 356 357 358 358 359 360 359 359 358 355 351 351 353 353 354 355 355 356 356 356 354 353 353 352 352 353 353 352 352 350
342 341 340 341 335 338 350 348 357 365 359 361 359 343 350 366 360 359 356 352 352 350 349 348 347 347 345 345 344 343 345 347 345 342 342 342 342 342 341 341 342 344 345 346 347 347 349 350 351 352 353 353 352 353 352 351 350 349 352 353 353 354 353 353 354 355 356 356 356 358 360 360 358 358 360 359 356 353 351 353 355 355 356 356 355 356 356 354 354 354 354 354 354 353 353 352 351
345 334 330 335 331 335 349 348 357 364 359 361 356 344 352 365 362 360 357 352 353 352 350 349 348 347 346 345 344 343 344 345 345 343 342 341 342 341 342 341 341 343 345 346 346 347 349 350 350 351 353 352 352 353 353 351 350 350 353 353 353 355 354 354 354 354 356 356 355 357 360 360 356 356 360 360 356 353 351 351 355 356 357 357 355 357 356 354 354 355 356 357 355 354 353 352 352
344 334 324 328 328 333 341 346 357 360 360 362 356 351 356 363 361 359 357 353 352 354 352 351 349 348 348 346 344 343 344 344 344 345 342 342 342 341 341 340 341 344 344 346 346 348 350 350 350 350 351 352 352 353 354 352 351 351 353 353 353 355 354 354 354 354 355 356 357 357 359 359 356 355 357 359 358 354 352 352 355 357 356 357 357 358 356 353 354 355 357 358 357 355 352 352 352
335 334 328 329 331 332 333 342 357 357 360 362 357 359 359 359 361 358 359 357 353 355 352 352 351 349 350 348 345 344 344 344 344 345 344 342 342 341 341 340 342 344 344 346 347 348 350 350 349 349 350 351 352 354 354 353 352 352 354 353 353 354 353 354 353 354 354 355 357 358 359 359 356 356 353 357 360 354 352 353 354 357 356 357 358 357 355 354 354 354 356 358 358 356 352 351 352
328 328 327 329 332 334 333 339 352 357 360 360 357 362 363 361 363 359 359 360 357 358 354 353 352 350 352 349 346 345 344 343 343 346 345 343 343 341 341 341 342 344 344 345 347 348 349 349 349 349 350 350 351 354 355 353 352 352 353 353 354 354 353 354 354 355 354 355 357 357 359 359 357 358 355 357 360 355 353 354 355 357 356 357 359 357 356 356 356 356 356 356 358 357 353 352 353
335 334 333 328 326 332 341 344 345 354 359 360 361 363 365 365 364 360 358 358 359 359 355 355 355 353 353 350 346 346 345 344 343 346 346 344 344 341 342 342 342 344 344 346 348 349 350 349 350 351 350 350 351 354 353 352 351 351 352 352 353 354 355 354 354 355 354 355 357 358 360 360 358 359 358 359 361 357 355 355 356 356 356 358 359 357 357 357 359 360 357 356 357 357 355 354 354
340 339 337 331 326 330 346 353 347 344 352 357 362 364 367 364 361 361 357 359 360 357 357 358 359 356 355 352 349 347 346 344 344 346 346 346 344 343 344 343 342 344 345 347 349 349 351 350 352 353 351 351 351 352 351 350 350 350 351 352 352 353 355 355 355 355 355 356 358 359 359 359 358 358 359 360 361 359 358 358 357 356 356 358 358 359 361 361 361 360 358 358 359 358 355 353 353
339 337 333 329 327 331 344 350 347 343 350 356 361 364 369 365 359 360 360 361 359 354 357 360 358 358 356 355 352 349 347 344 344 346 346 346 345 344 344 343 343 345 346 348 349 350 351 351 353 354 353 352 352 351 351 349 350 349 351 351 350 352 355 354 354 354 354 357 358 359 359 359 359 358 359 361 361 360 360 360 359 358 356 357 359 361 362 362 362 359 357 358 359 358 355 351 352
336 336 331 325 327 330 334 340 344 344 348 355 361 360 363 363 359 361 360 358 359 359 360 360 359 358 357 358 355 352 349 346 344 345 347 346 346 345 345 345 344 345 347 348 349 350 350 351 352 354 353 353 353 352 351 350 350 350 350 351 350 351 354 354 354 352 353 356 357 358 359 359 359 358 358 360 361 361 361 360 359 357 357 359 361 361 362 365 363 359 359 359 358 355 352 351 351
336 334 326 323 329 327 322 329 340 343 342 347 349 347 354 360 357 357 354 351 358 359 357 358 360 359 359 358 356 354 351 349 347 345 346 347 347 347 346 346 345 346 347 348 349 350 350 351 353 354 354 353 353 353 352 351 351 351 351 351 353 354 354 355 356 354 354 357 357 358 359 358 359 358 357 358 359 360 359 356 356 358 358 360 362 363 364 364 362 360 360 360 358 352 347 349 350
334 335 329 326 332 329 325 330 338 340 339 343 341 330 335 351 353 350 347 345 355 358 356 356 358 360 359 358 358 356 352 351 349 346 345 347 348 348 348 348 346 346 348 348 348 349 348 350 354 355 355 353 354 354 354 353 353 354 355 354 357 358 356 356 357 356 355 356 356 357 357 358 358 358 357 357 358 360 360 356 357 360 361 361 361 362 362 361 360 359 359 358 357 353 348 347 349
327 333 335 333 334 333 331 334 332 326 325 335 336 321 323 339 344 347 348 345 352 355 356 357 358 359 358 359 359 358 356 353 350 348 346 347 348 348 350 349 348 347 348 348 347 348 348 349 354 356 356 354 354 355 355 354 355 356 357 356 357 358 357 356 356 356 354 354 354 355 356 356 356 357 357 357 357 360 362 361 360 361 360 362 362 361 361 360 359 359 357 357 356 355 351 347 347
320 329 336 336 337 334 330 330 324 317 319 332 338 323 320 330 338 348 351 349 354 354 355 357 359 360 358 360 360 358 359 355 352 351 348 348 349 349 351 350 348 347 348 348 347 347 348 350 355 357 356 355 354 357 356 355 357 357 356 355 354 355 355 355 355 355 354 352 353 355 355 355 356 356 356 358 359 359 362 364 363 362 359 360 362 362 360 358 358 358 357 357 356 355 354 350 347
319 330 336 335 336 333 331 329 323 320 323 329 334 328 322 324 334 348 353 352 357 355 356 359 359 360 359 359 359 357 357 356 354 353 350 350 350 351 352 351 349 347 347 348 346 347 349 352 356 356 356 355 355 357 357 356 358 358 356 354 352 352 352 354 355 355 355 353 355 356 354 355 356 357 357 358 359 360 363 363 362 363 361 360 360 361 359 356 358 359 357 359 357 355 356 355 352
326 332 334 335 336 335 334 329 324 326 323 318 323 325 323 324 335 347 352 353 356 357 356 359 359 359 359 357 356 355 355 358 357 353 351 353 352 352 353 352 350 346 346 348 347 349 350 354 358 357 357 356 356 358 358 358 357 357 356 354 353 352 351 352 354 355 356 355 357 358 357 357 356 357 359 358 358 360 362 362 361 363 363 361 359 359 358 358 360 360 358 359 357 354 356 356 355
330 331 332 334 335 335 335 331 324 323 321 315 318 320 321 326 335 342 348 346 350 356 354 355 357 359 357 358 356 355 355 358 358 356 353 355 353 353 353 353 350 346 346 348 347 350 352 355 359 359 358 357 356 359 360 359 357 356 356 354 355 354 352 353 353 354 357 357 358 360 361 361 358 356 359 359 359 359 361 361 360 361 361 360 359 360 360 358 360 361 359 358 357 356 356 355 356
329 330 331 330 331 333 332 330 324 320 319 317 317 320 321 329 337 342 344 345 347 352 353 352 352 354 358 358 357 356 356 356 356 357 355 357 355 354 354 353 351 347 347 349 348 350 353 357 361 360 360 358 358 360 362 360 357 356 356 355 356 356 354 354 354 355 358 358 359 359 360 361 360 358 358 359 359 359 360 360 359 359 360 359 359 360 360 357 357 358 359 359 358 358 358 356 355
329 330 328 323 322 325 323 322 322 319 318 317 320 322 318 324 338 346 345 347 349 350 351 353 352 351 355 356 357 357 358 357 357 355 355 358 357 356 355 353 353 349 348 350 350 351 353 358 362 363 361 360 360 361 362 360 357 356 356 356 356 357 356 355 356 356 358 359 358 359 359 360 360 359 358 358 358 358 360 360 359 360 361 360 360 360 360 359 358 358 359 360 359 358 359 358 356
329 327 320 316 314 317 317 317 318 317 317 318 322 323 318 323 337 347 347 348 347 348 350 351 351 352 353 353 356 358 358 356 354 354 353 355 356 357 356 355 354 352 349 350 351 351 353 357 362 364 363 361 361 362 362 359 357 356 356 357 356 358 357 355 356 356 357 358 357 358 359 359 360 360 358 358 356 357 359 360 360 362 363 362 362 364 364 363 362 361 361 360 360 360 359 358 357
326 321 315 313 313 315 317 317 317 317 316 318 321 322 324 330 340 346 347 345 346 347 348 349 350 352 353 351 352 357 358 356 353 354 352 352 356 357 357 357 356 355 352 352 352 352 353 356 362 365 365 364 362 363 362 359 358 357 356 357 357 358 358 356 355 354 354 356 356 357 357 358 358 357 356 356 355 355 357 359 360 362 364 363 363 366 367 365 363 363 364 361 360 361 359 359 358
325 325 321 314 312 315 316 314 315 316 314 316 318 320 324 330 339 344 344 342 345 345 345 348 349 350 351 350 350 354 358 358 357 354 352 353 356 357 357 357 357 356 356 353 353 354 354 356 362 365 366 365 364 364 363 360 358 357 357 356 356 357 358 356 355 352 351 353 355 355 356 355 354 353 354 354 355 354 355 357 359 360 362 362 363 364 365 365 364 363 365 365 362 362 361 361 360
323 326 322 315 315 317 313 312 314 314 313 313 315 319 327 334 341 344 342 341 343 343 344 346 347 348 349 349 350 349 355 356 355 355 354 355 356 357 356 355 355 356 356 356 355 355 355 356 361 365 366 366 365 365 364 362 360 358 358 358 356 356 357 356 355 353 351 352 353 353 354 354 351 350 352 353 354 355 355 356 357 358 359 360 361 362 362 364 365 362 365 365 362 362 362 361 362
321 321 317 319 325 321 312 310 312 312 313 313 315 322 330 335 341 344 342 343 343 343 343 343 345 347 348 348 349 348 350 354 354 354 354 354 355 357 356 355 354 355 356 356 355 355 356 358 361 364 366 365 365 366 365 364 362 359 359 359 357 356 357 356 354 353 352 351 353 353 352 353 352 349 350 352 353 355 355 356 355 355 357 357 358 360 360 363 366 363 364 366 363 361 363 363 361
319 316 318 323 327 324 317 313 312 311 312 311 314 322 326 327 335 343 343 343 342 342 342 343 344 345 346 347 347 347 348 349 352 354 354 356 357 356 356 356 355 355 355 355 356 356 357 358 360 363 365 364 364 364 364 363 364 362 360 360 358 355 356 355 352 352 352 351 352 353 350 350 352 350 348 349 351 354 355 355 355 354 355 356 355 357 357 360 363 363 364 367 365 362 366 367 363
321 318 322 323 316 316 317 315 313 311 311 311 313 320 322 322 330 339 341 343 342 342 342 341 342 344 345 345 345 347 347 348 350 351 353 356 358 357 357 356 356 355 355 354 355 357 357 358 359 360 362 362 363 362 361 363 363 362 361 361 359 356 355 354 352 351 352 351 350 351 350 349 350 349 349 348 349 351 354 354 355 354 353 355 356 355 356 358 360 361 361 362 362 362 365 367 363
322 321 323 323 318 315 316 316 315 312 312 312 312 318 322 324 334 340 340 342 341 340 342 341 341 342 343 343 343 345 347 348 350 349 349 353 356 357 357 357 357 356 356 355 355 357 357 357 359 359 359 361 362 360 360 363 362 360 360 362 362 359 356 355 353 351 352 351 351 350 349 349 348 348 349 350 349 350 351 352 352 351 350 352 354 354 355 356 358 359 359 357 358 361 362 362 362
319 318 317 318 319 319 318 316 314 312 312 312 311 318 325 332 339 342 340 341 340 339 341 341 340 340 341 342 342 343 345 346 349 350 349 352 355 356 355 357 357 354 355 355 355 356 355 355 357 358 359 360 360 358 358 362 361 359 360 362 363 362 358 355 354 353 352 352 352 351 349 348 348 348 348 350 352 351 350 350 349 348 348 349 351 352 353 355 357 358 358 356 356 358 360 361 360
319 317 316 317 316 317 316 315 314 312 311 311 311 318 327 335 339 339 339 339 338 339 339 339 339 339 340 341 340 340 342 342 345 347 348 353 357 356 356 356 357 355 355 354 354 354 353 356 356 356 357 358 358 356 357 361 362 360 360 360 361 362 360 357 354 353 352 352 353 353 351 348 347 349 349 349 352 352 350 350 349 347 348 348 349 352 352 352 355 357 357 355 353 356 358 359 359
Wind_Speed
12 11 8 9 10 9 8 4 3 2 2 3 3 3 5 4 5 9 8 9 8 5 8 10 10 5 7 12 13 12 10 8 6 5 7 12 22 23 20 21 21 21 22 20 20 19 18 17 16 15 15 17 18 17 17 17 17 16 14 13 12 12 12 12 11 10 10 10 10 9 9 8 9 8 8 8 9 12 13 11 9 10 12 11 9 10 11 12 13 13 11 13 13 14 14 13 13
11 11 7 7 8 8 4 2 3 1 3 2 3 5 7 5 5 9 8 8 8 9 10 11 10 7 11 13 13 15 13 13 15 12 13 22 24 21 23 21 20 20 20 20 20 19 18 17 16 16 16 17 17 17 17 17 17 14 12 12 12 12 12 12 11 11 10 10 10 9 9 9 10 10 9 9 10 12 13 12 10 10 11 11 10 10 11 12 13 12 11 12 13 13 13 14 14
10 9 7 6 7 4 2 1 2 1 2 2 4 6 8 8 7 10 9 10 11 13 12 11 10 6 9 13 12 14 12 14 21 17 15 22 19 19 23 20 21 20 19 19 18 18 18 18 17 17 17 17 17 16 16 16 15 13 11 11 11 11 12 11 11 12 12 11 10 10 10 11 11 11 10 10 11 12 13 12 12 11 11 12 10 9 10 11 10 11 12 13 15 13 12 13 14
6 7 8 6 5 3 2 2 1 1 2 3 5 6 10 10 8 8 11 13 13 13 11 11 10 4 7 15 14 13 13 13 19 17 14 18 20 22 24 23 23 20 19 18 17 17 18 19 19 17 17 17 16 16 16 15 14 12 11 11 11 11 12 11 12 13 12 12 11 11 12 12 12 11 11 11 13 13 12 13 14 13 12 12 11 10 10 10 9 11 13 13 15 15 13 13 13
6 8 6 5 3 1 2 2 1 1 1 2 5 6 10 13 9 9 12 13 12 12 11 10 10 9 9 13 10 9 13 14 17 18 17 23 28 28 25 25 23 21 20 18 18 17 19 21 19 18 17 17 15 15 15 15 14 12 11 11 12 11 11 11 12 13 12 12 13 13 12 13 13 11 11 12 13 12 12 14 15 14 12 11 12 12 11 10 10 11 12 12 14 15 14 14 14
8 7 5 6 3 2 2 1 1 1 2 3 6 8 10 13 11 13 14 13 12 11 11 10 11 13 12 12 10 10 14 14 16 18 21 27 29 27 26 24 22 21 20 18 20 19 20 22 20 19 17 16 14 14 15 15 14 12 11 11 12 11 11 11 12 13 12 12 13 13 13 13 12 12 12 12 12 11 12 14 14 13 12 12 12 12 13 12 12 12 12 12 14 14 14 15 15
7 5 4 5 3 3 3 0 1 0 4 5 7 9 10 12 12 15 15 14 11 8 9 10 12 13 11 11 11 13 18 17 16 19 24 28 28 26 26 25 22 22 19 18 20 19 21 22 20 18 16 15 14 14 14 14 13 11 11 12 13 11 11 11 12 12 13 13 13 14 14 13 12 12 13 13 12 12 13 13 14 13 13 14 13 12 14 14 13 12 12 13 13 14 15 16 17
6 4 1 2 3 3 2 1 2 2 4 6 8 10 11 12 12 14 14 12 10 9 10 12 12 11 12 14 12 14 20 20 21 25 27 28 27 24 24 24 22 22 20 18 19 20 22 21 19 17 16 14 13 14 14 13 11 10 11 12 12 11 11 11 11 12 13 14 13 13 13 13 13 12 13 13 12 13 15 15 15 14 14 15 14 14 16 15 13 13 13 14 14 15 15 16 17
7 4 0 2 3 1 1 1 4 5 7 8 10 9 9 11 12 13 13 12 10 11 13 13 13 11 14 17 14 13 18 23 27 29 28 26 26 24 22 22 22 23 21 19 19 20 21 20 18 16 15 13 13 14 13 12 10 10 11 12 13 12 12 12 11 12 14 14 13 13 13 13 13 13 13 12 12 15 16 17 15 14 15 16 15 16 17 16 14 14 14 15 16 16 16 16 17
5 4 3 3 1 1 1 1 4 7 8 8 9 9 8 9 12 12 13 13 12 12 14 14 15 14 15 17 13 12 19 26 29 28 27 25 24 24 23 21 21 23 22 21 20 20 20 19 18 15 14 14 14 14 13 11 10 11 11 12 12 11 12 13 13 11 12 13 13 14 14 13 13 13 13 12 12 15 16 17 16 15 17 16 15 16 17 16 15 15 14 14 16 16 15 15 16
4 4 4 2 1 2 3 4 6 8 8 8 7 6 6 8 10 12 12 13 12 13 14 13 14 16 16 14 10 15 24 27 27 27 26 24 22 25 25 21 20 21 22 22 21 21 20 19 17 15 14 14 15 14 13 11 11 11 11 12 11 11 12 14 15 12 10 12 14 15 15 14 13 13 13 12 12 14 15 16 16 18 17 14 15 17 17 17 15 15 15 15 15 15 15 15 15
4 1 2 2 1 1 4 6 8 9 9 9 5 2 4 8 9 11 13 13 13 12 12 12 13 15 15 13 10 18 26 25 26 27 25 23 21 24 27 24 21 20 21 21 21 22 21 20 18 16 14 14 14 13 13 12 11 12 12 12 11 11 11 13 16 15 12 11 12 15 16 15 14 14 13 13 14 13 14 15 16 17 16 15 16 18 17 17 16 16 16 15 15 15 15 15 15
5 2 2 2 0 1 3 7 9 9 8 8 7 5 6 7 10 11 12 13 12 12 12 12 14 14 13 12 11 16 22 24 26 26 24 23 21 21 25 26 23 22 22 22 23 22 21 20 19 16 14 14 13 12 13 13 11 11 11 11 12 12 11 12 15 16 16 14 12 13 15 16 15 14 13 13 14 14 14 14 14 15 16 16 17 18 17 17 16 17 16 16 16 15 14 14 15
3 3 2 2 1 2 4 6 7 8 7 5 6 7 6 6 10 10 11 13 11 10 12 12 14 14 13 12 11 12 17 24 26 24 23 21 21 20 21 24 24 23 23 22 22 20 19 19 18 16 14 13 13 13 13 12 11 11 10 10 12 13 13 12 13 15 16 17 16 15 15 15 16 15 14 13 13 13 14 14 14 15 16 17 18 17 17 17 17 18 18 17 16 16 16 15 15
3 4 2 1 2 3 4 5 6 7 7 7 6 7 8 7 11 10 10 12 10 10 11 12 11 10 13 14 12 13 20 26 25 23 22 21 21 20 20 20 20 20 20 19 18 18 18 18 17 16 15 14 13 11 11 12 11 10 10 10 11 12 13 13 13 15 15 16 16 17 16 15 15 15 14 14 14 14 14 14 13 15 16 17 17 17 17 16 17 18 18 18 18 18 18 17 16
4 2 1 1 1 2 4 4 6 8 7 9 7 7 9 9 7 7 9 9 10 11 10 10 8 8 14 15 16 21 26 27 25 23 22 21 20 20 19 18 18 17 17 17 15 17 17 17 17 15 15 15 14 11 9 11 10 10 10 10 11 12 13 14 15 15 15 15 15 16 17 16 15 16 15 14 14 14 14 14 14 15 16 16 16 16 17 16 16 17 19 19 20 20 19 17 17
3 1 1 1 1 1 4 2 3 6 9 10 8 9 11 11 5 3 7 9 11 12 9 8 8 9 14 17 24 28 28 26 25 24 22 20 19 18 18 17 17 16 15 15 14 16 17 16 16 16 15 16 17 15 10 10 10 10 11 11 12 13 14 15 15 15 16 15 15 15 16 15 15 14 15 14 14 14 14 14 14 14 15 15 16 16 16 16 16 17 19 18 19 19 18 16 16
2 1 2 1 1 2 2 3 4 6 10 11 8 9 12 11 7 5 7 8 11 11 9 10 10 12 18 25 29 29 28 27 25 24 22 20 18 17 17 16 16 15 15 15 14 14 16 16 15 15 16 16 17 18 14 12 12 10 10 11 12 13 14 14 13 14 15 15 14 14 14 14 13 14 15 14 14 15 14 15 15 15 15 15 17 18 17 17 17 18 18 17 17 17 16 14 15
1 2 0 1 4 3 3 5 9 8 9 12 10 8 10 11 11 9 9 10 12 12 11 12 14 17 23 28 29 28 27 26 25 24 22 20 18 18 17 16 15 15 15 15 15 14 14 15 14 13 15 15 15 16 17 15 14 13 12 12 13 13 13 13 11 10 12 13 13 14 14 13 11 14 15 14 14 15 15 17 18 18 18 17 18 19 18 18 17 18 17 16 16 14 12 11 12
1 2 2 1 7 7 5 5 11 13 11 12 11 7 8 11 11 9 11 14 12 12 12 13 16 20 22 25 27 27 26 24 24 22 21 20 18 18 17 17 16 15 15 14 15 14 14 14 14 13 13 14 13 13 14 15 14 14 14 15 14 13 13 13 12 10 9 11 14 13 14 13 12 14 15 15 16 15 16 16 16 16 16 17 17 17 16 16 16 15 15 15 14 10 7 8 9
2 4 2 3 5 7 6 5 8 14 13 11 11 8 8 9 8 7 9 12 11 10 12 14 17 21 23 23 25 26 25 23 22 21 20 19 18 17 16 17 16 16 15 14 14 14 14 14 14 14 13 13 12 11 11 12 13 12 14 15 13 12 12 11 12 12 9 10 16 16 14 15 14 14 14 15 15 14 14 12 12 11 11 12 12 12 12 13 13 14 14 15 14 10 7 6 7
4 7 1 2 3 6 7 7 6 10 12 11 12 9 8 9 8 8 9 7 7 9 13 16 17 20 23 23 24 23 22 22 21 21 20 19 19 17 16 16 17 16 15 14 14 14 15 14 14 14 12 11 11 12 10 11 13 11 12 12 9 9 9 9 9 10 8 7 14 17 16 17 15 13 12 13 12 12 12 10 9 9 9 9 9 9 9 11 11 13 14 14 13 10 7 7 6
2 7 2 3 2 4 5 7 7 7 10 10 11 7 5 10 11 9 9 5 3 10 14 17 18 20 23 24 22 22 20 20 20 21 20 20 19 18 17 17 16 15 14 14 15 15 15 14 14 13 12 11 11 13 12 12 12 10 10 9 8 8 7 8 7 8 8 7 9 12 15 16 14 13 13 12 12 11 12 10 8 9 9 10 10 9 9 10 10 12 13 12 12 10 7 7 6
3 5 1 3 1 3 3 6 8 8 9 8 10 10 8 9 11 7 5 4 6 11 15 17 19 20 22 22 20 21 19 19 20 20 20 19 19 18 18 17 16 15 14 14 15 14 14 14 14 13 12 12 13 13 13 12 11 10 9 8 8 8 7 7 7 8 8 7 7 8 10 12 13 13 12 13 11 10 11 10 8 9 9 9 10 9 9 10 10 11 11 10 10 10 7 6 6
5 4 1 1 1 3 3 5 9 10 10 9 10 11 6 8 11 10 7 7 9 13 16 18 19 20 20 19 20 20 18 18 19 20 19 18 18 18 16 16 16 15 15 14 14 14 14 14 13 13 12 11 12 12 12 11 10 9 9 8 8 7 7 7 8 8 8 8 7 7 7 9 10 10 11 12 11 9 9 8 8 9 8 8 9 9 9 10 9 8 8 8 8 11 9 6 5
5 3 1 2 1 3 2 4 10 9 8 10 10 10 9 7 8 9 10 11 13 14 17 19 19 19 19 18 19 19 17 18 19 19 19 18 18 18 16 16 15 15 16 14 14 14 15 15 13 13 12 10 10 10 10 9 9 9 8 9 8 7 8 8 7 7 7 8 8 7 7 9 9 9 11 12 11 10 8 7 9 8 8 8 8 9 8 9 8 7 8 7 8 11 7 4 5
6 3 2 5 1 2 3 5 10 9 8 10 10 9 9 7 5 3 8 12 14 16 18 18 19 18 18 17 18 17 17 18 19 19 19 18 18 17 16 15 15 16 16 14 14 14 15 15 13 13 12 10 10 9 9 9 9 8 8 8 8 8 8 7 6 7 7 8 8 8 8 8 8 9 9 9 8 8 7 8 9 8 8 8 8 8 7 7 7 7 8 7 8 8 4 3 5
5 3 5 6 2 2 3 7 10 8 8 9 10 9 6 6 5 4 9 13 14 18 18 18 18 17 17 18 17 15 15 18 19 18 18 18 17 17 16 15 15 16 16 15 14 14 14 14 14 13 12 11 10 9 9 9 9 8 8 8 8 8 7 6 6 7 7 8 8 8 7 7 8 9 8 7 7 7 7 8 8 8 7 7 7 8 7 7 6 6 5 4 5 5 5 5 5
5 5 7 5 6 4 3 6 9 7 6 12 12 9 4 4 6 7 10 13 15 17 18 17 17 15 16 16 15 13 14 17 17 17 17 17 17 18 17 16 16 16 15 15 14 15 14 14 14 13 12 11 10 9 9 9 9 8 8 8 8 8 7 6 7 6 6 7 7 7 7 7 8 8 6 5 6 7 7 7 8 7 6 7 7 7 7 5 6 6 5 6 7 7 6 6 5
6 6 6 3 7 5 3 5 7 5 4 12 10 5 6 6 7 9 10 13 16 17 16 17 16 15 15 15 14 13 15 16 15 16 17 17 17 18 18 17 17 15 15 15 15 15 15 14 14 12 12 11 10 9 9 9 9 9 8 8 8 7 6 6 6 6 6 6 6 7 7 7 6 6 6 4 4 7 7 6 7 7 6 7 7 7 6 5 6 6 7 8 6 6 6 6 5
8 8 6 4 6 6 6 5 9 6 1 7 5 3 7 7 7 9 11 14 16 16 16 16 15 15 14 14 14 14 15 16 16 17 18 17 17 17 17 17 17 16 15 15 15 16 15 14 13 12 13 12 10 10 9 9 9 8 8 8 8 6 6 6 6 6 6 6 6 6 6 6 6 6 5 4 4 5 7 7 6 6 6 5 6 6 5 5 5 5 6 6 5 6 6 5 5
9 8 7 7 6 7 7 6 12 8 4 4 5 3 7 7 7 7 9 14 16 16 16 15 15 16 15 14 14 14 14 17 18 18 18 18 17 16 17 17 17 16 15 15 15 16 15 14 13 13 13 12 11 10 9 9 8 8 7 8 7 6 6 6 6 6 5 5 5 5 5 5 5 6 5 5 4 4 6 8 7 6 6 5 6 5 5 5 5 5 4 3 4 5 5 5 5
9 8 6 8 7 6 6 8 12 6 6 4 3 3 6 5 7 8 10 15 16 15 16 16 16 16 15 14 14 13 14 15 16 18 19 18 17 17 17 17 16 16 16 16 16 16 15 15 14 13 14 13 12 11 10 9 8 8 7 7 7 6 6 6 5 5 5 5 5 5 5 5 4 5 6 5 4 3 6 8 7 6 5 5 5 4 4 5 5 5 4 2 3 4 5 5 5
8 9 5 7 8 6 6 10 13 7 6 6 2 4 5 4 8 8 10 14 14 13 15 16 15 14 14 13 14 14 14 14 14 17 19 18 17 17 17 17 16 16 16 16 16 16 15 15 13 14 14 13 12 11 10 10 9 8 7 7 7 6 6 6 6 5 5 5 5 5 5 5 4 5 7 6 4 4 6 8 8 6 6 6 5 4 4 5 5 5 5 3 2 2 4 5 4
9 9 4 8 7 5 5 8 14 14 10 6 5 5 4 4 8 7 10 12 11 11 13 14 14 14 14 13 14 14 15 15 14 17 20 18 17 18 18 18 17 16 16 16 16 15 15 14 12 13 14 13 13 12 11 10 9 9 7 8 8 6 5 6 6 5 6 6 6 6 6 6 5 5 7 6 4 5 6 7 7 6 6 6 5 4 5 5 4 5 5 4 2 0 3 4 4
11 10 7 10 7 5 2 3 9 14 11 7 5 5 6 5 6 7 11 9 10 13 13 11 11 13 13 13 13 14 15 15 16 19 21 19 18 18 18 18 17 16 16 17 16 15 15 14 13 13 14 14 13 12 12 11 10 9 9 9 9 8 7 6 7 6 6 6 7 7 7 6 7 6 7 6 5 5 6 6 6 6 6 6 5 5 5 5 5 4 5 5 3 2 3 4 3
11 10 8 11 6 7 4 3 6 9 8 9 8 7 9 10 9 10 12 12 14 14 15 12 10 10 11 13 13 15 15 15 18 20 20 20 19 19 18 18 18 17 16 17 17 16 16 15 15 15 14 14 14 12 12 11 11 10 10 10 10 9 8 7 7 7 7 8 8 8 7 7 7 7 7 6 6 6 6 6 5 6 7 6 5 5 4 5 5 4 5 4 3 3 3 3 4
11 10 8 9 7 7 8 8 9 7 5 9 13 10 7 9 11 11 11 11 11 11 13 14 12 10 10 11 13 15 14 14 17 19 20 21 20 20 19 18 19 18 18 18 18 17 16 16 15 15 15 14 14 13 12 12 11 11 10 10 9 9 9 8 8 8 7 8 9 8 8 8 8 8 7 7 7 6 6 6 4 5 7 5 4 5 4 4 4 5 5 4 2 2 2 3 4
10 8 8 9 6 5 7 7 8 8 5 7 15 12 8 10 10 11 11 9 6 5 8 11 12 12 11 10 12 13 14 15 16 17 20 21 21 21 20 18 20 19 19 19 18 18 17 16 15 15 15 15 14 13 13 12 11 10 10 9 8 8 9 8 7 8 8 9 9 8 8 9 8 8 8 7 7 6 6 7 6 5 6 5 4 4 5 3 4 5 5 3 2 3 3 3 3
8 7 7 8 7 5 4 8 8 7 4 4 8 6 9 14 11 11 12 11 9 6 7 8 8 10 10 11 12 14 15 15 17 17 19 20 21 22 20 19 20 20 19 19 19 19 18 17 16 16 16 15 14 14 13 12 11 10 9 8 6 6 8 7 6 7 8 8 9 9 8 9 9 8 9 8 7 7 6 7 7 6 5 5 4 4 4 4 4 5 4 2 2 3 4 4 3
9 9 8 6 9 10 4 6 9 8 6 6 5 4 7 14 13 12 12 11 13 12 10 9 7 6 6 5 6 11 14 14 17 18 17 19 21 21 21 20 20 20 20 20 20 20 18 18 18 17 16 16 15 15 14 13 12 11 9 8 6 5 7 7 7 7 7 7 8 9 9 9 9 9 9 8 8 8 7 6 7 6 5 5 5 4 4 5 5 5 4 3 1 2 4 4 3
10 11 10 8 12 12 5 5 8 8 6 9 8 5 6 10 9 9 10 12 13 11 11 11 9 8 7 3 3 9 13 12 15 17 17 19 21 22 22 21 21 21 20 21 21 20 19 20 20 18 17 16 16 16 16 14 13 13 11 10 9 8 8 8 8 7 8 7 7 9 10 9 9 9 9 8 8 8 7 6 7 6 6 5 5 4 4 5 5 5 5 4 2 3 3 3 3
9 9 8 9 12 13 10 8 9 6 4 10 11 5 4 7 8 8 5 10 13 12 11 11 9 9 9 6 5 10 12 13 14 15 17 19 21 22 22 22 22 22 21 21 21 21 20 20 21 20 18 17 17 17 18 15 14 14 13 11 10 10 9 8 8 7 7 7 7 9 9 9 9 8 8 8 8 8 8 7 7 6 6 6 5 4 5 6 6 5 4 3 3 4 3 2 3
8 11 13 9 9 11 10 9 8 6 4 9 10 8 4 5 6 6 4 7 10 10 11 11 8 7 8 8 8 11 11 12 13 15 17 18 21 22 23 23 23 22 22 21 21 21 21 21 22 21 19 18 17 18 19 17 15 14 14 12 11 10 9 8 8 7 6 6 6 8 9 9 9 7 8 8 8 8 7 7 7 6 5 6 6 5 5 5 5 5 4 4 3 3 3 2 1
4 6 14 12 10 10 9 8 7 7 5 6 10 10 6 4 4 3 5 7 6 6 9 9 8 8 7 8 10 12 9 5 7 13 17 17 20 23 23 23 23 23 23 22 22 22 22 22 23 22 20 19 19 19 20 18 16 15 14 13 11 10 9 8 9 8 7 7 7 7 7 8 9 8 7 8 8 8 7 7 7 6 5 5 6 5 4 4 5 5 5 4 3 3 2 2 1
2 3 7 9 12 12 10 9 8 8 8 7 10 13 8 4 3 3 4 6 5 5 7 6 8 13 11 12 11 10 8 2 6 12 15 17 21 23 23 23 23 23 23 23 22 22 23 23 23 23 22 20 20 21 21 19 18 16 14 14 12 10 9 8 9 9 8 8 7 7 7 7 8 8 8 8 9 8 7 6 6 6 5 5 5 4 4 5 5 5 5 4 4 3 3 2 2
4 5 7 8 9 10 8 8 7 8 9 9 12 14 10 4 1 3 2 3 2 3 5 5 4 9 11 12 10 8 9 7 10 13 13 15 18 20 22 23 24 23 22 24 23 23 24 24 24 25 23 22 21 22 21 20 19 17 16 15 14 12 11 10 10 10 10 9 9 8 8 7 7 8 9 9 9 9 8 7 6 6 5 4 4 3 4 5 5 5 5 5 4 4 4 3 3
4 4 8 7 7 7 7 7 8 9 9 10 11 12 11 6 3 2 3 4 4 5 5 6 5 4 5 8 10 10 12 12 13 11 10 13 13 15 19 21 22 23 22 23 24 23 24 24 25 25 24 23 23 23 22 21 20 18 17 17 16 14 13 12 11 11 11 11 10 9 9 8 8 7 8 9 9 9 9 7 6 5 5 4 4 3 3 3 4 5 5 4 4 4 4 4 4
6 7 9 7 7 7 7 8 8 9 8 9 12 13 9 4 6 7 6 6 6 7 7 7 7 5 3 3 6 9 10 11 12 8 7 10 11 13 16 16 19 23 23 23 23 23 24 24 25 26 25 24 23 24 23 22 21 19 18 18 17 16 15 14 12 11 12 11 11 10 10 10 9 9 9 8 9 10 9 8 7 6 5 5 4 3 2 2 2 3 4 4 4 5 5 5 5
8 8 9 8 7 8 9 8 7 8 9 9 13 13 7 6 7 9 9 8 8 9 9 8 8 7 6 3 3 7 8 7 8 9 8 8 9 12 13 13 15 18 21 23 23 23 23 23 25 26 25 25 24 24 24 23 22 21 19 19 18 17 16 15 14 13 12 12 11 12 11 11 10 10 10 9 9 9 9 9 8 7 6 5 5 4 3 3 3 3 3 4 4 4 5 5 5
11 9 9 8 7 7 7 8 8 8 9 10 11 9 7 8 7 8 11 9 8 10 10 9 9 8 7 6 4 5 9 4 3 6 9 10 11 12 11 12 14 15 19 22 22 23 23 23 25 26 26 25 25 24 24 24 23 22 21 19 18 18 17 16 15 14 14 13 13 13 12 11 11 10 10 9 9 9 9 9 8 8 7 6 6 6 5 5 5 4 3 3 4 4 4 5 5
9 9 9 8 8 7 7 8 9 9 9 10 8 4 5 8 10 10 10 9 9 10 11 11 10 9 8 8 7 7 9 7 4 5 8 10 12 13 13 15 16 17 17 17 19 23 23 23 25 26 26 26 26 25 24 24 24 22 22 21 20 18 17 17 16 15 15 14 14 13 13 12 12 11 11 11 10 9 9 9 9 9 8 8 7 7 7 6 6 6 4 5 5 4 4 5 5
6 9 10 6 5 7 7 8 10 10 10 9 8 7 8 9 9 10 10 10 10 9 11 12 10 10 9 9 9 7 7 7 5 5 6 8 10 13 15 16 17 18 18 18 20 23 23 23 24 25 25 25 26 25 24 24 23 23 23 22 22 20 19 18 18 17 17 15 15 14 14 13 13 13 12 12 12 11 10 10 9 9 9 9 8 8 8 7 7 7 6 6 6 5 4 5 5
5 7 7 3 2 6 7 6 9 11 10 10 11 11 10 9 7 9 11 10 10 9 10 11 10 10 10 11 10 9 7 4 3 6 7 7 11 14 14 15 16 18 21 22 21 21 21 22 23 25 25 25 26 25 24 23 23 23 23 23 23 22 21 20 19 18 17 17 16 15 15 15 15 14 13 12 13 13 12 11 10 10 10 10 10 9 10 9 8 8 7 7 7 7 5 5 6
8 4 4 4 4 5 6 5 7 10 10 9 13 14 9 7 7 8 10 9 10 9 7 9 11 11 11 11 11 11 9 6 3 2 6 7 10 11 11 14 17 18 20 21 22 22 23 23 24 25 26 26 26 25 24 23 23 22 22 23 24 23 22 21 19 19 18 18 18 17 16 16 16 16 15 15 14 14 14 13 12 11 11 11 11 10 10 10 10 9 9 8 8 8 8 7 7
9 6 5 6 5 6 7 6 6 8 9 9 12 13 5 3 6 7 8 7 6 7 6 7 10 11 11 11 11 12 11 9 8 6 3 3 5 11 12 14 14 15 16 16 18 19 20 21 23 24 25 26 26 25 24 24 24 23 21 22 24 23 22 21 20 20 19 19 19 18 17 17 17 17 17 17 16 15 15 15 14 13 13 12 12 11 11 11 11 11 10 9 8 9 9 9 8
8 7 7 7 5 5 6 7 7 7 9 9 9 9 6 6 7 7 8 6 4 5 6 6 9 10 11 12 12 12 11 10 10 9 7 6 4 9 14 14 13 14 15 12 10 15 21 23 24 23 23 25 25 25 25 25 24 23 22 22 23 23 23 21 21 21 20 20 19 19 18 18 17 17 17 18 18 17 16 15 15 15 14 13 13 12 12 12 12 11 11 10 9 9 10 9 9
2 6 7 7 8 7 5 7 9 9 8 6 5 6 9 8 5 6 7 6 5 5 6 7 9 10 11 12 12 13 12 11 11 11 9 8 8 7 8 6 9 13 12 10 9 16 25 25 22 22 21 22 24 25 26 25 24 24 23 23 22 22 22 22 21 22 22 21 20 20 19 19 19 19 18 18 19 19 18 17 16 16 15 14 14 14 13 12 12 12 12 11 11 11 11 10 10
Wind_Direction
148 157 182 203 209 208 206 211 250 210 226 246 169 139 101 104 125 123 123 121 107 92 105 100 90 67 86 99 94 77 49 46 58 92 108 124 135 138 138 134 135 136 135 135 134 133 132 132 135 136 129 125 123 119 118 118 118 118 117 116 113 111 112 110 108 111 111 111 108 107 107 105 104 101 98 99 102 106 102 95 95 94 89 90 89 87 95 95 91 96 99 99 102 106 108 106 102
177 189 184 190 209 222 228 199 244 206 213 247 132 126 107 115 133 121 117 112 116 122 111 101 92 76 88 102 98 78 56 58 81 88 104 128 130 130 134 133 135 134 132 133 132 134 136 135 135 133 128 125 121 119 118 119 121 121 119 117 111 110 114 113 112 110 105 102 106 114 114 106 101 98 99 102 104 106 102 97 95 95 94 94 93 93 97 98 100 103 103 103 100 98 102 107 107
197 195 175 188 209 213 283 241 234 318 197 152 91 109 115 119 121 112 114 116 122 123 111 104 95 76 87 91 84 81 79 77 95 100 112 131 130 131 136 134 134 132 130 130 132 134 136 137 133 130 127 123 121 120 120 121 123 124 124 116 111 113 117 116 109 103 97 96 104 114 116 111 102 98 101 108 110 105 103 102 103 102 97 94 93 94 94 96 103 109 111 110 105 102 101 104 105
225 204 191 205 219 192 227 240 208 268 185 133 99 113 121 118 117 109 117 126 127 122 111 106 92 54 74 90 91 89 97 95 102 109 122 138 139 140 141 137 134 131 131 130 133 134 136 138 133 129 127 124 123 122 122 123 126 130 128 118 115 118 120 114 103 100 97 98 105 110 115 113 105 103 107 112 112 108 103 101 102 100 95 94 96 95 93 97 102 105 108 108 107 107 106 104 106
227 211 210 223 237 223 231 251 255 213 176 134 120 116 117 120 132 126 123 130 125 116 110 108 97 89 75 80 93 97 107 110 111 114 123 135 140 142 139 135 133 131 130 131 132 130 134 136 132 130 128 126 124 123 124 126 131 133 128 120 119 119 117 109 102 101 100 103 106 110 113 109 105 107 108 109 111 106 101 100 98 97 95 94 96 95 93 96 99 100 103 104 105 107 108 109 111
208 208 221 230 256 303 263 269 303 178 80 83 120 112 111 122 136 133 127 125 114 112 118 113 103 102 85 69 77 100 116 115 116 121 125 131 137 137 134 130 129 129 128 130 130 128 133 133 131 131 129 127 125 124 125 128 132 131 126 122 122 120 114 108 106 104 104 107 107 109 110 106 106 107 107 108 108 102 98 98 94 93 94 93 94 96 95 96 98 101 104 106 106 107 108 111 111
205 213 215 232 258 238 243 94 189 198 48 50 104 114 119 130 136 133 129 124 117 119 125 116 111 107 94 88 84 96 112 113 120 129 129 131 135 134 130 127 127 127 127 126 124 128 133 131 131 132 128 126 125 125 128 130 131 130 127 126 125 120 113 109 108 108 111 113 111 111 111 110 108 107 109 110 107 102 100 96 93 92 93 95 95 96 97 98 98 102 105 106 107 108 107 107 108
218 238 229 255 264 233 250 84 115 86 81 73 91 116 135 141 138 134 132 132 128 126 124 113 108 97 92 101 99 101 111 117 125 129 130 132 135 131 126 127 127 128 128 124 124 131 133 131 132 128 124 125 126 128 131 134 133 133 132 132 127 118 118 114 111 113 116 117 115 115 115 114 111 110 112 111 109 108 106 101 96 96 97 98 98 98 97 99 100 102 105 107 107 107 108 108 108
222 227 257 261 264 291 313 120 113 92 103 101 95 117 140 141 137 135 134 131 131 130 123 109 100 96 99 102 101 104 110 119 126 129 132 135 134 128 126 130 130 131 130 126 127 131 131 129 127 122 123 124 126 130 135 136 135 137 137 136 129 123 123 116 115 116 118 120 117 116 118 115 113 115 112 108 108 109 107 101 100 101 99 97 98 99 98 100 102 103 104 107 109 107 107 109 109
223 205 238 261 301 268 211 151 117 93 98 107 111 127 135 139 139 136 134 131 135 130 114 107 107 107 107 105 104 110 117 125 129 131 134 134 133 128 128 130 129 131 130 130 131 131 132 129 125 124 126 127 131 134 138 138 138 142 139 133 130 130 125 118 118 116 117 118 116 116 116 115 114 117 112 106 107 105 104 102 105 101 93 92 98 99 98 101 103 105 106 106 107 107 107 108 108
244 211 232 263 17 217 161 120 110 101 110 113 108 119 134 157 148 136 138 135 134 123 114 119 116 109 107 105 104 117 126 131 132 134 135 135 135 131 129 129 130 131 132 133 134 134 134 129 127 129 133 136 139 141 140 139 140 139 135 131 132 133 126 121 119 115 113 114 119 118 114 114 116 118 113 110 107 104 109 109 105 99 95 99 102 101 101 102 103 105 105 107 106 106 107 108 109
263 263 261 286 27 182 142 121 114 116 124 122 130 186 183 177 155 137 143 139 133 125 122 128 123 116 113 109 112 127 132 136 135 136 136 137 136 132 131 131 130 130 133 135 135 138 137 134 132 134 140 140 141 144 138 138 140 136 134 134 136 135 126 122 119 119 119 115 116 115 115 115 115 118 118 116 111 109 111 102 97 102 110 113 106 102 102 101 102 102 101 103 104 104 105 106 109
269 331 324 312 307 181 135 118 120 125 122 125 143 168 199 179 148 142 146 139 134 124 117 127 131 123 113 112 125 135 136 137 137 138 138 138 136 134 133 133 132 132 135 136 137 139 137 134 133 136 139 136 138 138 135 138 139 133 134 135 136 135 129 124 121 123 123 120 118 116 117 117 115 118 120 118 111 108 104 102 108 115 117 110 102 100 100 99 99 100 100 101 103 104 104 105 107
255 275 298 329 240 176 129 119 133 131 121 131 130 145 188 176 145 147 147 136 130 120 115 127 128 116 113 122 135 142 139 139 140 140 139 137 136 134 133 133 135 138 138 137 138 136 132 130 131 134 132 131 133 132 135 139 136 131 134 134 135 137 133 128 124 124 125 129 133 127 120 118 120 121 120 119 115 115 116 123 128 117 107 101 98 98 97 98 100 100 100 100 102 104 104 105 107
240 279 330 324 249 163 121 118 134 123 127 146 144 163 174 159 149 148 143 133 129 127 121 127 128 123 137 142 142 145 142 142 142 140 138 136 135 133 132 132 132 134 134 133 134 131 130 132 132 130 127 129 129 130 135 134 134 134 133 132 133 137 136 131 128 128 129 131 131 126 122 121 120 118 118 124 129 131 128 126 117 104 99 100 100 98 97 98 100 101 101 101 100 98 98 101 103
242 304 7 291 230 155 106 113 130 121 141 153 158 185 162 138 131 137 140 131 130 135 132 131 128 134 147 145 140 143 142 143 142 140 139 136 135 133 133 133 130 128 128 131 133 130 132 136 134 131 132 132 127 128 130 128 137 139 133 133 134 138 137 132 128 128 130 128 127 124 122 122 122 122 122 127 129 122 115 110 102 98 98 99 100 99 100 101 102 104 104 103 99 95 93 95 100
267 341 340 17 74 84 75 103 139 114 141 155 171 188 157 129 90 95 131 129 133 135 132 121 115 133 139 136 137 141 142 142 141 140 140 138 138 138 137 136 134 132 132 133 134 132 133 137 138 139 139 135 132 131 132 128 132 141 138 138 139 138 134 129 128 130 131 131 133 131 126 129 132 127 122 118 112 106 104 102 99 98 98 100 101 100 100 101 103 107 107 103 98 95 93 92 96
246 25 13 25 89 75 85 129 131 119 141 151 168 173 149 136 134 145 131 133 140 132 125 114 114 125 124 129 136 140 142 143 144 144 144 144 144 144 142 141 141 138 137 136 135 135 134 137 140 141 140 140 139 136 141 139 136 145 136 130 132 129 127 123 125 134 136 135 135 134 127 126 127 119 112 108 104 104 102 99 96 94 96 100 101 101 100 99 101 103 105 103 99 96 97 96 95
220 77 225 225 95 122 182 130 127 143 154 147 150 157 151 146 148 158 148 146 148 134 130 121 117 119 123 132 138 141 144 146 148 148 148 149 149 148 145 145 145 142 141 139 138 139 138 140 143 141 140 143 145 142 144 145 148 152 139 132 134 132 136 130 127 133 133 132 130 125 118 114 111 108 108 109 108 105 101 97 95 93 96 99 101 102 102 103 103 103 103 102 102 98 101 109 107
331 169 181 94 104 135 170 124 132 155 165 149 141 141 152 153 151 163 155 148 150 140 137 132 127 128 133 138 141 145 149 150 151 151 151 150 150 148 147 147 147 145 144 142 141 142 142 142 145 144 142 144 146 144 144 146 149 152 147 150 154 152 148 139 144 147 134 138 135 120 113 114 110 107 110 111 108 104 101 99 96 94 96 97 100 102 102 105 106 108 105 101 100 97 106 123 125
271 238 122 103 132 122 130 126 135 156 160 146 138 135 151 160 144 141 151 150 149 146 143 141 137 138 140 143 145 150 152 152 154 153 152 151 150 149 148 148 146 145 143 143 143 143 144 143 147 147 147 154 153 146 145 144 145 150 151 152 155 153 143 136 147 147 145 152 140 124 114 116 111 108 112 109 107 110 109 107 105 101 99 96 101 106 103 105 105 104 102 97 97 97 101 110 118
226 255 165 132 149 94 122 137 129 150 147 143 145 141 161 165 137 130 150 157 142 139 145 142 141 143 145 146 147 150 154 154 156 156 154 153 151 149 149 147 144 144 145 145 145 145 146 146 147 148 152 161 154 149 150 146 152 159 151 145 140 134 130 130 134 132 132 130 126 125 123 119 111 108 110 106 106 116 115 112 113 115 117 104 105 115 106 101 100 99 99 95 96 95 89 88 94
186 254 210 76 76 94 130 133 131 144 142 152 147 142 185 156 137 136 144 176 181 134 138 142 142 146 146 146 149 152 156 156 157 158 157 155 153 150 150 149 145 146 147 146 144 146 149 148 149 149 152 155 146 149 151 143 151 154 142 141 131 123 124 125 119 115 110 94 103 116 122 121 117 118 121 119 117 120 116 111 110 111 112 99 100 109 100 99 92 90 94 97 100 96 92 95 93
178 237 149 70 55 93 116 135 142 145 149 148 135 160 186 145 133 127 127 202 200 133 130 139 141 146 147 148 152 152 157 158 157 159 157 155 153 152 151 148 146 146 147 146 146 148 150 149 150 151 151 152 146 151 151 140 140 139 137 137 127 123 123 118 114 112 106 98 93 91 106 114 117 121 121 118 118 118 115 117 112 106 107 99 98 101 97 98 87 81 86 94 103 96 98 113 105
208 235 109 140 273 86 115 149 143 144 155 139 138 166 139 101 130 135 151 177 157 132 130 138 141 147 149 151 152 151 158 158 156 159 157 155 154 153 151 146 145 148 148 149 149 149 150 150 151 152 151 152 149 152 151 143 138 136 135 129 123 124 117 113 115 113 109 103 93 75 87 100 105 112 109 107 110 107 107 112 108 105 111 107 103 104 100 98 99 101 97 93 97 96 104 121 115
242 267 344 273 343 92 147 168 153 151 157 143 151 155 105 99 133 138 161 153 139 136 135 140 146 150 151 154 152 152 159 157 158 160 156 156 155 155 153 148 149 151 149 151 152 150 152 152 152 152 152 153 150 148 144 137 135 132 128 124 123 120 113 115 116 111 110 106 99 88 87 91 96 99 97 101 107 110 112 112 109 110 109 103 100 98 94 100 112 112 101 91 82 90 112 126 110
242 263 271 270 341 121 210 180 157 152 157 150 147 138 124 130 123 132 154 140 141 141 137 144 150 151 153 155 151 154 159 157 160 160 156 157 156 157 155 151 154 151 149 153 152 152 153 153 153 152 151 152 151 145 138 134 134 130 127 126 123 118 117 119 114 106 103 101 102 99 90 85 91 95 91 98 108 113 116 107 103 106 101 97 95 92 88 89 91 84 81 79 74 86 138 162 121
224 231 237 234 181 176 200 168 152 158 161 140 122 107 106 125 125 176 152 140 150 143 140 149 152 151 154 154 150 156 160 158 163 161 159 158 157 161 158 156 157 151 153 155 152 153 155 155 153 152 151 152 152 147 140 137 135 132 131 128 122 121 122 118 111 105 100 100 100 98 94 83 88 97 94 101 109 106 107 102 96 98 99 100 97 94 91 86 86 86 80 91 124 140 152 147 137
219 221 235 199 174 196 159 165 158 164 145 121 123 107 108 172 155 171 156 146 153 146 144 150 152 152 153 154 150 158 160 159 165 163 161 160 162 165 161 161 158 152 155 154 153 157 156 154 152 152 153 152 151 148 143 141 138 138 136 129 127 128 126 119 113 109 105 107 102 100 104 92 88 97 99 107 111 105 105 103 104 104 104 105 103 98 99 110 119 123 137 155 171 171 150 145 151
219 209 240 193 183 184 137 186 142 128 117 125 157 160 147 180 163 175 175 157 154 150 150 152 153 153 155 155 153 160 159 160 167 164 162 161 165 166 163 163 158 154 154 153 156 159 155 153 153 154 155 154 152 148 147 147 144 143 138 132 137 137 130 123 120 117 115 116 110 107 108 99 97 102 104 102 97 108 109 103 103 106 107 103 109 115 115 132 136 143 167 169 165 160 149 150 148
220 195 212 226 211 160 161 192 106 90 53 128 190 187 141 179 183 186 180 165 159 154 156 157 153 153 157 155 159 162 157 164 169 165 163 163 167 167 163 163 159 155 154 156 158 157 154 153 156 155 154 156 153 150 151 151 148 145 139 138 143 142 136 131 127 127 125 124 120 116 114 111 115 110 102 94 83 106 115 113 110 109 117 115 116 128 132 135 145 157 164 165 160 151 146 144 135
222 206 195 226 225 146 167 170 108 118 146 152 228 142 134 182 193 198 186 173 165 157 159 162 157 156 158 157 162 163 158 167 169 166 166 165 167 166 163 164 160 156 155 158 157 156 156 154 157 156 155 158 153 151 153 153 151 145 141 142 146 144 139 134 130 132 129 129 126 124 122 120 124 119 112 109 103 111 116 117 114 115 129 126 120 135 148 146 154 158 154 170 158 138 138 138 130
214 226 206 215 210 160 178 144 117 128 127 153 249 116 124 171 197 210 202 183 167 160 161 162 162 158 158 160 163 164 161 167 169 168 167 166 168 165 164 165 162 158 156 158 157 158 158 156 161 157 156 159 155 155 154 154 153 145 145 147 148 149 143 139 138 136 133 135 129 127 132 130 131 130 127 122 114 113 119 121 119 126 133 122 125 148 158 152 153 152 154 161 142 137 137 130 128
200 218 219 231 212 174 176 133 124 145 144 156 154 90 104 158 193 203 207 191 167 164 163 162 164 158 161 163 164 166 162 166 171 168 167 167 168 165 164 164 163 158 157 160 160 162 158 159 164 157 157 160 157 158 155 157 156 150 155 152 153 158 153 147 147 143 140 142 136 134 137 135 137 137 132 126 106 104 117 126 132 141 138 127 139 156 154 154 151 149 149 145 158 168 132 124 129
206 203 198 244 220 154 171 144 146 159 157 156 135 101 97 157 184 202 223 198 165 172 167 160 162 158 165 166 164 168 165 167 171 168 168 168 167 166 164 163 165 161 160 161 160 163 158 159 164 155 158 161 157 159 157 159 158 160 167 158 159 167 161 152 153 153 145 143 141 140 139 135 141 141 135 128 114 123 129 129 139 148 138 134 149 152 150 153 147 145 147 150 177 209 116 120 118
221 203 186 229 208 116 118 143 158 168 161 151 150 133 134 175 191 209 230 202 180 185 160 153 165 160 167 170 166 167 167 168 169 170 169 168 168 167 164 164 167 164 161 159 159 164 159 159 164 159 163 162 157 162 161 164 166 169 176 167 167 172 168 161 158 159 151 145 142 142 142 139 143 143 139 137 127 133 136 133 144 144 135 143 154 151 147 144 143 147 146 151 170 159 132 132 123
234 220 200 230 207 119 123 166 193 195 165 148 166 165 156 176 185 200 218 198 190 179 150 150 161 161 169 170 168 166 168 168 168 172 170 169 170 167 166 166 168 166 162 161 162 167 165 163 165 163 167 164 161 167 168 172 174 175 180 177 175 173 170 168 165 163 152 145 143 142 143 142 146 146 144 145 139 139 135 135 149 142 137 148 143 134 130 130 141 149 148 165 189 170 150 142 127
230 232 207 230 220 143 144 169 184 180 137 139 159 166 173 185 182 190 206 194 182 163 153 155 153 170 177 168 169 167 169 168 165 171 171 171 171 169 169 168 171 170 165 166 167 169 169 168 168 167 170 168 167 171 171 176 179 179 181 181 177 170 169 171 168 163 153 146 146 145 144 145 148 149 150 150 147 147 139 139 150 139 135 142 132 127 131 134 150 155 154 175 184 150 137 127 121
220 231 202 216 207 137 140 164 170 159 153 158 160 166 179 184 183 181 184 182 170 154 159 152 158 179 169 162 174 169 171 170 166 172 173 174 173 170 171 171 174 173 169 171 170 170 172 171 171 170 172 172 171 172 173 177 180 182 183 181 176 166 168 171 158 155 156 153 151 149 148 150 151 152 154 155 151 148 149 154 155 141 132 139 143 140 145 148 157 166 166 173 157 132 132 128 128
223 228 202 203 185 182 182 168 167 161 161 164 170 184 159 161 179 181 179 168 150 162 168 147 164 180 164 170 176 170 178 175 169 175 175 174 174 172 173 173 175 174 173 175 173 172 174 175 174 174 175 174 174 174 175 176 176 180 183 183 174 158 164 163 147 152 157 152 152 153 153 154 155 156 157 158 156 153 158 156 146 143 143 145 148 145 161 165 158 172 169 165 167 145 141 130 117
223 226 220 202 195 222 215 149 167 164 148 143 180 234 149 156 173 174 178 158 138 156 165 150 164 172 174 198 181 170 181 180 173 176 177 175 175 174 174 175 176 177 176 177 177 177 176 176 176 175 176 176 176 175 174 175 174 176 179 180 172 154 162 166 164 169 165 160 162 160 159 160 159 157 158 161 159 156 160 153 141 149 154 152 158 155 164 167 161 171 162 147 133 113 129 126 113
217 218 226 216 210 219 172 148 195 188 173 163 180 220 146 147 147 142 164 150 136 155 162 158 167 168 179 216 232 188 182 185 182 177 179 178 177 177 175 176 178 178 179 179 180 180 177 176 175 176 177 177 177 175 175 176 174 177 178 179 179 171 173 178 180 179 171 173 173 162 159 163 162 157 157 160 159 159 161 160 155 154 154 160 173 168 164 172 170 169 160 148 110 83 100 128 122
217 196 213 232 229 216 178 184 217 219 182 162 184 213 123 121 105 93 121 133 139 162 166 164 165 166 177 182 215 209 181 180 188 182 183 181 179 179 176 178 182 179 180 180 180 180 177 175 175 176 177 178 178 176 177 178 178 181 182 184 186 184 183 183 184 179 172 175 164 155 158 163 165 162 159 159 159 161 161 166 168 161 161 167 172 179 183 178 170 166 161 142 113 98 91 112 116
228 196 199 215 235 222 197 205 225 227 142 143 194 219 156 134 112 98 110 118 131 154 157 163 171 171 182 179 198 218 193 177 186 184 184 185 182 182 179 180 183 181 179 180 181 180 177 176 176 177 177 178 179 178 179 181 181 183 186 190 192 191 189 182 182 180 173 173 154 152 161 163 168 168 161 162 163 164 165 171 175 171 174 170 168 184 190 170 157 162 165 139 123 123 111 103 98
244 207 200 195 215 229 227 231 234 229 204 177 205 210 180 137 101 123 156 131 120 126 130 146 168 168 197 208 192 208 215 198 205 191 183 186 184 184 183 182 184 184 180 181 181 178 177 176 176 177 178 178 180 179 181 184 184 185 186 191 194 195 193 184 184 182 173 172 159 155 161 159 169 174 165 166 169 170 174 177 178 179 182 175 174 181 175 163 157 167 176 163 156 156 139 132 121
111 83 203 202 214 225 233 236 232 232 236 223 200 197 191 128 116 197 169 130 127 125 113 125 155 151 176 209 190 193 206 205 253 213 183 185 187 185 186 185 187 186 182 182 182 178 177 177 177 178 178 178 180 180 183 185 185 186 188 191 194 193 192 188 186 183 177 176 170 165 165 163 172 178 173 173 175 177 181 184 185 186 187 180 178 174 162 166 167 171 182 181 178 178 177 183 167
150 119 203 208 213 221 228 229 229 228 227 229 216 202 191 139 151 224 128 86 71 88 93 83 108 130 155 183 176 194 204 188 224 214 177 180 190 188 188 188 189 190 186 183 183 181 179 178 177 178 179 178 180 180 183 186 186 188 189 191 194 191 190 190 187 185 181 180 182 179 176 177 180 183 181 179 181 184 183 189 194 191 192 184 179 177 169 171 173 172 174 180 185 190 193 198 206
182 165 204 198 199 213 219 214 223 230 217 218 224 212 199 183 186 191 109 87 53 45 61 65 55 82 137 169 165 185 200 191 200 201 172 174 185 192 194 193 191 192 190 186 186 185 181 179 178 178 180 179 180 182 183 186 187 190 191 191 194 193 192 192 189 189 187 184 187 186 183 185 187 189 187 184 186 186 183 189 197 196 194 193 188 189 184 172 168 165 164 176 186 192 202 200 209
200 200 208 200 194 195 209 211 212 226 226 218 215 214 211 158 134 145 118 90 77 64 54 53 52 55 72 146 153 165 190 190 179 181 191 179 180 194 192 193 197 194 193 191 189 189 184 182 181 179 181 180 180 182 183 186 188 191 192 191 194 194 194 196 193 193 193 191 192 190 189 191 191 193 193 191 191 188 183 187 193 195 194 197 198 194 193 184 172 163 164 183 189 188 203 208 211
205 211 207 205 202 191 204 212 207 219 226 221 214 209 189 121 129 140 116 89 78 76 66 56 54 47 43 52 120 147 169 194 171 165 194 197 194 199 183 185 200 198 198 195 192 194 188 185 184 181 181 181 181 183 182 185 188 190 193 193 193 195 196 198 198 198 198 197 196 195 196 196 194 195 196 195 194 190 187 187 190 193 193 196 200 200 198 195 195 192 182 194 200 194 202 213 221
202 217 216 211 214 202 208 213 207 214 219 208 200 198 174 149 138 122 111 102 85 78 70 61 58 50 42 42 37 97 128 156 217 173 187 199 200 203 190 186 192 196 205 202 194 195 192 187 186 184 183 182 182 183 183 185 187 189 191 193 194 196 198 200 201 201 201 200 200 199 199 199 197 198 198 197 196 194 192 190 191 195 196 197 201 204 205 202 205 209 207 210 210 203 208 218 226
194 218 226 221 224 217 221 226 215 212 220 207 184 153 121 132 130 128 127 112 93 82 75 66 57 52 45 46 33 35 92 124 215 215 198 200 193 196 200 197 194 197 206 209 202 199 195 190 188 186 185 184 183 183 184 186 186 188 190 192 195 196 198 201 202 202 202 201 200 200 200 199 198 198 198 198 196 197 197 196 197 199 198 200 202 205 210 208 208 211 212 217 219 211 211 224 235
190 208 216 219 250 254 240 224 216 212 217 207 174 128 116 133 140 141 133 110 96 82 74 67 54 53 49 46 42 22 52 107 168 205 211 214 201 197 199 197 199 200 201 208 211 206 198 191 189 189 188 186 186 184 185 187 185 187 190 191 194 196 198 201 202 202 202 201 200 201 201 199 200 200 196 196 196 198 201 201 203 204 200 203 205 206 211 210 208 214 215 215 221 223 219 226 239
221 206 217 216 269 284 275 238 214 209 214 204 171 150 151 159 153 145 140 121 103 85 71 68 55 50 50 44 43 32 26 54 140 172 178 199 206 204 201 197 201 205 202 205 211 210 203 196 190 189 189 191 191 187 187 189 187 187 190 191 194 196 199 203 204 203 203 202 201 201 202 200 200 201 198 197 197 199 202 202 205 207 203 205 207 206 210 212 211 216 218 216 220 224 225 228 233
267 301 292 257 221 229 245 249 221 200 212 212 169 157 173 182 163 153 145 121 102 93 73 67 59 49 48 45 39 36 31 27 30 139 156 168 185 190 201 206 205 210 211 206 209 208 203 199 194 192 192 193 194 191 189 190 190 191 191 192 195 196 199 203 205 205 203 204 205 203 204 204 201 201 200 200 201 199 200 201 203 207 206 204 207 207 208 210 214 218 220 220 219 220 224 230 232
247 285 264 241 243 227 214 227 230 201 211 215 171 157 162 141 131 130 122 104 97 99 83 64 59 51 46 45 38 34 33 31 22 16 64 111 150 165 192 216 208 212 223 215 210 211 207 200 197 197 196 196 195 194 192 191 193 195 194 192 194 196 199 201 203 205 205 206 207 206 206 206 204 203 201 202 205 202 200 202 203 206 206 205 206 208 208 209 212 218 222 222 219 218 222 229 234
217 233 220 208 228 242 224 225 238 229 218 216 196 168 127 97 108 111 107 101 85 92 93 75 61 53 49 45 41 37 33 34 29 16 26 33 50 153 183 210 201 200 224 224 207 215 221 213 202 197 197 197 197 196 196 194 194 196 195 193 194 194 197 201 202 204 206 206 207 208 208 207 206 207 204 202 204 204 203 204 205 206 207 206 206 208 209 209 211 216 220 225 224 222 224 226 231
269 232 220 208 210 218 227 222 226 239 237 233 227 178 130 112 125 122 114 114 100 90 89 80 66 55 51 46 43 41 37 35 28 15 21 32 34 92 142 181 176 175 201 223 226 230 230 218 200 197 200 199 200 201 199 195 193 196 196 195 196 196 196 200 201 203 206 207 207 207 208 208 207 208 207 205 204 205 206 206 207 208 207 208 207 208 211 210 211 214 216 221 224 222 225 228 229